Gauley at Summersville (cfs) [ USA-WVR ]

Edit Gauge

Current Conditions

Reading of "n/a" = frozen gauge or gauge error.
Reading Trend Type Updated
3105 cfs 10 cfs/hr Flow 01h12m

Station Description

AW Gauge ID: 8515
Source: virtual
Station: 8515
Enabled yes
Description:StreamTeam Member: Matt Muir The virtual Gauley gauge is based on the rating table published by the USGS in Oct 2003. Funding to update the rating table is no longer available. Discharge values calculated by this virtual gauge are thus calculated based on channel bed morphology as of 2003.
Calculation:$g = $gauge[1434]->getValue(GMETRIC_STAGE,0); if ($g >= 8.9) { $x=(-0.0344*pow($g,5))+(2.6808*pow($g,4))-(77.748*pow($g,3))+(1150.7*pow($g,2))-(7873.3*$g)+19890; } elseif ($g >= 7.0) { $x=(69.822*pow($g,2))-(656.23*$g)+1354.5; } elseif ($g >= 6.5) { $x=(171.43*pow($g,2))-(2104.1*$g)+6474; } else { $x=40; } $flow = $x;
Data is courtesy of AW's Stream Team program. This data is calculated based on other gauges and information provided by the Stream Team. This data, and any river data, should be used with caution.

Information

Flow

Gauge History

Times listed in GMT 24h, ET and PT hours provided for convenience Graphs in GMT. Readings of "n/a" constitute a frozen gauge or gauge error.
Reading Updated (GMT) Eastern Pacific Comment
3105.32 11/27/2014 01:27:28 Nov 26 08:27 pm Nov 26 5:27 pm
3095.06 11/27/2014 00:27:44 Nov 26 07:27 pm Nov 26 4:27 pm
3105.32 11/26/2014 23:25:52 Nov 26 06:25 pm Nov 26 3:25 pm
3054.18 11/26/2014 22:26:08 Nov 26 05:26 pm Nov 26 2:26 pm
3084.82 11/26/2014 21:26:24 Nov 26 04:26 pm Nov 26 1:26 pm
3095.06 11/26/2014 20:26:40 Nov 26 03:26 pm Nov 26 12:26 pm
3647.61 11/26/2014 19:26:56 Nov 26 02:26 pm Nov 26 11:26 am
3636.62 11/26/2014 18:27:12 Nov 26 01:27 pm Nov 26 10:27 am
3647.61 11/26/2014 17:27:28 Nov 26 12:27 pm Nov 26 9:27 am
3636.62 11/26/2014 16:27:44 Nov 26 11:27 am Nov 26 8:27 am
3647.61 11/26/2014 15:25:52 Nov 26 10:25 am Nov 26 7:25 am
3848.06 11/26/2014 14:26:08 Nov 26 09:26 am Nov 26 6:26 am
3881.93 11/26/2014 13:26:24 Nov 26 08:26 am Nov 26 5:26 am
3848.06 11/26/2014 12:26:40 Nov 26 07:26 am Nov 26 4:26 am
3893.25 11/26/2014 11:26:56 Nov 26 06:26 am Nov 26 3:26 am
3848.06 11/26/2014 10:27:12 Nov 26 05:27 am Nov 26 2:27 am
3848.06 11/26/2014 09:27:28 Nov 26 04:27 am Nov 26 1:27 am
3870.63 11/26/2014 08:27:44 Nov 26 03:27 am Nov 26 12:27 am
3859.34 11/26/2014 07:25:52 Nov 26 02:25 am Nov 25 11:25 pm
3870.63 11/26/2014 06:26:08 Nov 26 01:26 am Nov 25 10:26 pm
3848.06 11/26/2014 05:26:24 Nov 26 12:26 am Nov 25 9:26 pm
3848.06 11/26/2014 03:26:56 Nov 25 10:26 pm Nov 25 7:26 pm
3836.80 11/26/2014 01:27:28 Nov 25 08:27 pm Nov 25 5:27 pm
3893.25 11/26/2014 00:27:44 Nov 25 07:27 pm Nov 25 4:27 pm
3825.55 11/25/2014 23:25:52 Nov 25 06:25 pm Nov 25 3:25 pm
3859.34 11/25/2014 22:26:08 Nov 25 05:26 pm Nov 25 2:26 pm
3836.80 11/25/2014 21:26:24 Nov 25 04:26 pm Nov 25 1:26 pm
3859.34 11/25/2014 20:26:40 Nov 25 03:26 pm Nov 25 12:26 pm
3814.32 11/25/2014 19:26:56 Nov 25 02:26 pm Nov 25 11:26 am
3859.34 11/25/2014 18:27:12 Nov 25 01:27 pm Nov 25 10:27 am
3814.32 11/25/2014 17:27:28 Nov 25 12:27 pm Nov 25 9:27 am
3836.80 11/25/2014 16:27:44 Nov 25 11:27 am Nov 25 8:27 am
3758.39 11/25/2014 15:25:52 Nov 25 10:25 am Nov 25 7:25 am
3538.30 11/25/2014 14:26:08 Nov 25 09:26 am Nov 25 6:26 am
2833.50 11/25/2014 13:26:24 Nov 25 08:26 am Nov 25 5:26 am
2022.70 11/25/2014 12:26:40 Nov 25 07:26 am Nov 25 4:26 am
2014.17 11/25/2014 11:26:56 Nov 25 06:26 am Nov 25 3:26 am
2022.70 11/25/2014 10:27:12 Nov 25 05:27 am Nov 25 2:27 am
2022.70 11/25/2014 09:27:28 Nov 25 04:27 am Nov 25 1:27 am
2014.17 11/25/2014 08:27:44 Nov 25 03:27 am Nov 25 12:27 am
2022.70 11/25/2014 07:25:52 Nov 25 02:25 am Nov 24 11:25 pm
2022.70 11/25/2014 06:26:08 Nov 25 01:26 am Nov 24 10:26 pm
2014.17 11/25/2014 05:26:24 Nov 25 12:26 am Nov 24 9:26 pm
2014.17 11/25/2014 03:26:56 Nov 24 10:26 pm Nov 24 7:26 pm
2022.70 11/25/2014 01:27:28 Nov 24 08:27 pm Nov 24 5:27 pm
2022.70 11/25/2014 00:27:44 Nov 24 07:27 pm Nov 24 4:27 pm
2014.17 11/24/2014 23:25:52 Nov 24 06:25 pm Nov 24 3:25 pm
2005.66 11/24/2014 22:26:08 Nov 24 05:26 pm Nov 24 2:26 pm
2031.24 11/24/2014 21:26:24 Nov 24 04:26 pm Nov 24 1:26 pm
2022.70 11/24/2014 20:26:40 Nov 24 03:26 pm Nov 24 12:26 pm
2022.70 11/24/2014 19:26:56 Nov 24 02:26 pm Nov 24 11:26 am
2039.80 11/24/2014 18:27:12 Nov 24 01:27 pm Nov 24 10:27 am
2031.24 11/24/2014 17:27:28 Nov 24 12:27 pm Nov 24 9:27 am
2031.24 11/24/2014 16:27:44 Nov 24 11:27 am Nov 24 8:27 am
2005.66 11/24/2014 15:25:52 Nov 24 10:25 am Nov 24 7:25 am
2005.66 11/24/2014 14:26:08 Nov 24 09:26 am Nov 24 6:26 am
2005.66 11/24/2014 13:26:24 Nov 24 08:26 am Nov 24 5:26 am
2014.17 11/24/2014 12:26:40 Nov 24 07:26 am Nov 24 4:26 am
2005.66 11/24/2014 11:26:56 Nov 24 06:26 am Nov 24 3:26 am
1997.16 11/24/2014 10:27:12 Nov 24 05:27 am Nov 24 2:27 am
1988.68 11/24/2014 09:27:28 Nov 24 04:27 am Nov 24 1:27 am
2005.66 11/24/2014 08:27:44 Nov 24 03:27 am Nov 24 12:27 am
1997.16 11/24/2014 07:25:52 Nov 24 02:25 am Nov 23 11:25 pm
2005.66 11/24/2014 06:26:08 Nov 24 01:26 am Nov 23 10:26 pm
2014.17 11/24/2014 05:26:24 Nov 24 12:26 am Nov 23 9:26 pm
1997.16 11/24/2014 03:26:56 Nov 23 10:26 pm Nov 23 7:26 pm
2005.66 11/24/2014 00:27:44 Nov 23 07:27 pm Nov 23 4:27 pm
1997.16 11/23/2014 23:25:52 Nov 23 06:25 pm Nov 23 3:25 pm
2005.66 11/23/2014 22:26:08 Nov 23 05:26 pm Nov 23 2:26 pm
2005.66 11/23/2014 21:26:24 Nov 23 04:26 pm Nov 23 1:26 pm
2005.66 11/23/2014 20:26:40 Nov 23 03:26 pm Nov 23 12:26 pm
2005.66 11/23/2014 19:26:56 Nov 23 02:26 pm Nov 23 11:26 am
2005.66 11/23/2014 18:27:12 Nov 23 01:27 pm Nov 23 10:27 am
2014.17 11/23/2014 17:27:28 Nov 23 12:27 pm Nov 23 9:27 am
2022.70 11/23/2014 16:27:44 Nov 23 11:27 am Nov 23 8:27 am
2014.17 11/23/2014 15:25:52 Nov 23 10:25 am Nov 23 7:25 am
2014.17 11/23/2014 14:26:08 Nov 23 09:26 am Nov 23 6:26 am
2022.70 11/23/2014 13:26:24 Nov 23 08:26 am Nov 23 5:26 am
2022.70 11/23/2014 12:26:40 Nov 23 07:26 am Nov 23 4:26 am
2022.70 11/23/2014 11:26:56 Nov 23 06:26 am Nov 23 3:26 am
2014.17 11/23/2014 10:27:12 Nov 23 05:27 am Nov 23 2:27 am
2022.70 11/23/2014 09:27:28 Nov 23 04:27 am Nov 23 1:27 am
2022.70 11/23/2014 08:27:44 Nov 23 03:27 am Nov 23 12:27 am
2014.17 11/23/2014 07:25:52 Nov 23 02:25 am Nov 22 11:25 pm
2022.70 11/23/2014 06:26:08 Nov 23 01:26 am Nov 22 10:26 pm
2014.17 11/23/2014 05:26:24 Nov 23 12:26 am Nov 22 9:26 pm
2014.17 11/23/2014 04:26:40 Nov 22 11:26 pm Nov 22 8:26 pm
2022.70 11/23/2014 03:26:56 Nov 22 10:26 pm Nov 22 7:26 pm
2022.70 11/23/2014 00:27:44 Nov 22 07:27 pm Nov 22 4:27 pm
2039.80 11/22/2014 23:25:52 Nov 22 06:25 pm Nov 22 3:25 pm
2031.24 11/22/2014 22:26:08 Nov 22 05:26 pm Nov 22 2:26 pm
2031.24 11/22/2014 21:26:24 Nov 22 04:26 pm Nov 22 1:26 pm
2039.80 11/22/2014 20:26:40 Nov 22 03:26 pm Nov 22 12:26 pm
2039.80 11/22/2014 19:26:56 Nov 22 02:26 pm Nov 22 11:26 am
2039.80 11/22/2014 18:27:12 Nov 22 01:27 pm Nov 22 10:27 am
2039.80 11/22/2014 17:27:28 Nov 22 12:27 pm Nov 22 9:27 am
2039.80 11/22/2014 16:27:44 Nov 22 11:27 am Nov 22 8:27 am
2039.80 11/22/2014 15:25:52 Nov 22 10:25 am Nov 22 7:25 am
2022.70 11/22/2014 14:26:08 Nov 22 09:26 am Nov 22 6:26 am
2039.80 11/22/2014 13:26:24 Nov 22 08:26 am Nov 22 5:26 am
2031.24 11/22/2014 12:26:40 Nov 22 07:26 am Nov 22 4:26 am
2039.80 11/22/2014 11:26:56 Nov 22 06:26 am Nov 22 3:26 am
2031.24 11/22/2014 10:27:12 Nov 22 05:27 am Nov 22 2:27 am
2039.80 11/22/2014 09:27:28 Nov 22 04:27 am Nov 22 1:27 am
2039.80 11/22/2014 08:27:44 Nov 22 03:27 am Nov 22 12:27 am
2031.24 11/22/2014 07:25:52 Nov 22 02:25 am Nov 21 11:25 pm
2039.80 11/22/2014 06:26:08 Nov 22 01:26 am Nov 21 10:26 pm
2048.38 11/22/2014 05:26:24 Nov 22 12:26 am Nov 21 9:26 pm
2014.17 11/22/2014 03:26:56 Nov 21 10:26 pm Nov 21 7:26 pm
2022.70 11/22/2014 02:27:12 Nov 21 09:27 pm Nov 21 6:27 pm
2014.17 11/22/2014 01:27:28 Nov 21 08:27 pm Nov 21 5:27 pm
2022.70 11/22/2014 00:27:44 Nov 21 07:27 pm Nov 21 4:27 pm
2022.70 11/21/2014 23:25:52 Nov 21 06:25 pm Nov 21 3:25 pm
2022.70 11/21/2014 22:26:08 Nov 21 05:26 pm Nov 21 2:26 pm
2404.24 11/21/2014 21:26:24 Nov 21 04:26 pm Nov 21 1:26 pm
2667.81 11/21/2014 20:26:40 Nov 21 03:26 pm Nov 21 12:26 pm
2658.19 11/21/2014 19:26:56 Nov 21 02:26 pm Nov 21 11:26 am
2667.81 11/21/2014 18:27:12 Nov 21 01:27 pm Nov 21 10:27 am
2639.01 11/21/2014 17:27:28 Nov 21 12:27 pm Nov 21 9:27 am
2658.19 11/21/2014 16:27:44 Nov 21 11:27 am Nov 21 8:27 am
2648.60 11/21/2014 15:25:52 Nov 21 10:25 am Nov 21 7:25 am
2648.60 11/21/2014 14:26:08 Nov 21 09:26 am Nov 21 6:26 am
2667.81 11/21/2014 13:26:24 Nov 21 08:26 am Nov 21 5:26 am
2639.01 11/21/2014 12:26:40 Nov 21 07:26 am Nov 21 4:26 am
2658.19 11/21/2014 11:26:56 Nov 21 06:26 am Nov 21 3:26 am
2658.19 11/21/2014 10:27:12 Nov 21 05:27 am Nov 21 2:27 am
2648.60 11/21/2014 09:27:28 Nov 21 04:27 am Nov 21 1:27 am
2648.60 11/21/2014 08:27:44 Nov 21 03:27 am Nov 21 12:27 am
2648.60 11/21/2014 07:25:52 Nov 21 02:25 am Nov 20 11:25 pm
2639.01 11/21/2014 06:26:08 Nov 21 01:26 am Nov 20 10:26 pm
2648.60 11/21/2014 05:26:24 Nov 21 12:26 am Nov 20 9:26 pm
2648.60 11/21/2014 03:26:56 Nov 20 10:26 pm Nov 20 7:26 pm
2639.01 11/21/2014 00:27:44 Nov 20 07:27 pm Nov 20 4:27 pm
2619.89 11/20/2014 23:25:52 Nov 20 06:25 pm Nov 20 3:25 pm
2639.01 11/20/2014 22:26:08 Nov 20 05:26 pm Nov 20 2:26 pm
2648.60 11/20/2014 21:26:24 Nov 20 04:26 pm Nov 20 1:26 pm
2648.60 11/20/2014 20:26:40 Nov 20 03:26 pm Nov 20 12:26 pm
2639.01 11/20/2014 19:26:56 Nov 20 02:26 pm Nov 20 11:26 am
2629.44 11/20/2014 18:27:12 Nov 20 01:27 pm Nov 20 10:27 am
2648.60 11/20/2014 17:27:28 Nov 20 12:27 pm Nov 20 9:27 am
2619.89 11/20/2014 16:27:44 Nov 20 11:27 am Nov 20 8:27 am
2639.01 11/20/2014 15:25:52 Nov 20 10:25 am Nov 20 7:25 am
2629.44 11/20/2014 14:26:08 Nov 20 09:26 am Nov 20 6:26 am
2619.89 11/20/2014 13:26:24 Nov 20 08:26 am Nov 20 5:26 am
2639.01 11/20/2014 12:26:40 Nov 20 07:26 am Nov 20 4:26 am
2619.89 11/20/2014 11:26:56 Nov 20 06:26 am Nov 20 3:26 am
2639.01 11/20/2014 10:27:12 Nov 20 05:27 am Nov 20 2:27 am
2629.44 11/20/2014 09:27:28 Nov 20 04:27 am Nov 20 1:27 am
2610.35 11/20/2014 08:27:44 Nov 20 03:27 am Nov 20 12:27 am
2639.01 11/20/2014 07:25:52 Nov 20 02:25 am Nov 19 11:25 pm
2629.44 11/20/2014 06:26:08 Nov 20 01:26 am Nov 19 10:26 pm
2629.44 11/20/2014 05:26:24 Nov 20 12:26 am Nov 19 9:26 pm
2591.31 11/20/2014 00:27:44 Nov 19 07:27 pm Nov 19 4:27 pm
2629.44 11/19/2014 23:25:52 Nov 19 06:25 pm Nov 19 3:25 pm
2610.35 11/19/2014 22:26:08 Nov 19 05:26 pm Nov 19 2:26 pm
2648.60 11/19/2014 21:26:24 Nov 19 04:26 pm Nov 19 1:26 pm
2784.32 11/19/2014 20:26:40 Nov 19 03:26 pm Nov 19 12:26 pm
2794.13 11/19/2014 19:26:56 Nov 19 02:26 pm Nov 19 11:26 am
2764.76 11/19/2014 18:27:12 Nov 19 01:27 pm Nov 19 10:27 am
2803.95 11/19/2014 17:27:28 Nov 19 12:27 pm Nov 19 9:27 am
2794.13 11/19/2014 16:27:44 Nov 19 11:27 am Nov 19 8:27 am
2784.32 11/19/2014 15:25:52 Nov 19 10:25 am Nov 19 7:25 am
2784.32 11/19/2014 14:26:08 Nov 19 09:26 am Nov 19 6:26 am
2764.76 11/19/2014 13:26:24 Nov 19 08:26 am Nov 19 5:26 am
2774.53 11/19/2014 11:26:56 Nov 19 06:26 am Nov 19 3:26 am
2774.53 11/19/2014 10:27:12 Nov 19 05:27 am Nov 19 2:27 am
2764.76 11/19/2014 08:27:44 Nov 19 03:27 am Nov 19 12:27 am
2784.32 11/19/2014 06:26:08 Nov 19 01:26 am Nov 18 10:26 pm
2774.53 11/19/2014 05:26:24 Nov 19 12:26 am Nov 18 9:26 pm
2764.76 11/19/2014 02:27:12 Nov 18 09:27 pm Nov 18 6:27 pm
2764.76 11/19/2014 00:27:44 Nov 18 07:27 pm Nov 18 4:27 pm
2755.00 11/18/2014 23:25:52 Nov 18 06:25 pm Nov 18 3:25 pm
2755.00 11/18/2014 22:26:08 Nov 18 05:26 pm Nov 18 2:26 pm
2764.76 11/18/2014 21:26:24 Nov 18 04:26 pm Nov 18 1:26 pm
2764.76 11/18/2014 20:26:40 Nov 18 03:26 pm Nov 18 12:26 pm
2764.76 11/18/2014 19:26:56 Nov 18 02:26 pm Nov 18 11:26 am
2755.00 11/18/2014 18:27:12 Nov 18 01:27 pm Nov 18 10:27 am
2764.76 11/18/2014 17:27:28 Nov 18 12:27 pm Nov 18 9:27 am
2755.00 11/18/2014 16:27:44 Nov 18 11:27 am Nov 18 8:27 am
2764.76 11/18/2014 15:25:52 Nov 18 10:25 am Nov 18 7:25 am
2784.32 11/18/2014 14:26:08 Nov 18 09:26 am Nov 18 6:26 am
2764.76 11/18/2014 13:26:24 Nov 18 08:26 am Nov 18 5:26 am
2091.50 11/18/2014 12:26:40 Nov 18 07:26 am Nov 18 4:26 am
2117.56 11/18/2014 11:26:56 Nov 18 06:26 am Nov 18 3:26 am
2108.86 11/18/2014 10:27:12 Nov 18 05:27 am Nov 18 2:27 am
2117.56 11/18/2014 08:27:44 Nov 18 03:27 am Nov 18 12:27 am
2100.17 11/18/2014 07:25:52 Nov 18 02:25 am Nov 17 11:25 pm
2117.56 11/18/2014 05:26:24 Nov 18 12:26 am Nov 17 9:26 pm
2108.86 11/18/2014 02:27:12 Nov 17 09:27 pm Nov 17 6:27 pm
2091.50 11/18/2014 00:27:44 Nov 17 07:27 pm Nov 17 4:27 pm
2100.17 11/17/2014 23:25:52 Nov 17 06:25 pm Nov 17 3:25 pm
2100.17 11/17/2014 22:26:08 Nov 17 05:26 pm Nov 17 2:26 pm
2117.56 11/17/2014 19:26:56 Nov 17 02:26 pm Nov 17 11:26 am
2117.56 11/17/2014 18:27:12 Nov 17 01:27 pm Nov 17 10:27 am
2117.56 11/17/2014 17:27:28 Nov 17 12:27 pm Nov 17 9:27 am
1971.77 11/17/2014 16:27:44 Nov 17 11:27 am Nov 17 8:27 am
1963.34 11/17/2014 15:25:52 Nov 17 10:25 am Nov 17 7:25 am
1980.22 11/17/2014 14:26:08 Nov 17 09:26 am Nov 17 6:26 am
1971.77 11/17/2014 13:26:24 Nov 17 08:26 am Nov 17 5:26 am
1971.77 11/17/2014 12:26:40 Nov 17 07:26 am Nov 17 4:26 am
1980.22 11/17/2014 11:26:56 Nov 17 06:26 am Nov 17 3:26 am
1963.34 11/17/2014 10:27:12 Nov 17 05:27 am Nov 17 2:27 am
1980.22 11/17/2014 09:27:28 Nov 17 04:27 am Nov 17 1:27 am
1971.77 11/17/2014 08:27:44 Nov 17 03:27 am Nov 17 12:27 am
1980.22 11/17/2014 07:25:52 Nov 17 02:25 am Nov 16 11:25 pm
1971.77 11/17/2014 06:26:08 Nov 17 01:26 am Nov 16 10:26 pm
1963.34 11/17/2014 05:26:24 Nov 17 12:26 am Nov 16 9:26 pm
1971.77 11/17/2014 03:26:56 Nov 16 10:26 pm Nov 16 7:26 pm
1971.77 11/17/2014 02:27:12 Nov 16 09:27 pm Nov 16 6:27 pm
1971.77 11/17/2014 00:27:44 Nov 16 07:27 pm Nov 16 4:27 pm
1971.77 11/16/2014 23:25:52 Nov 16 06:25 pm Nov 16 3:25 pm
1971.77 11/16/2014 22:26:08 Nov 16 05:26 pm Nov 16 2:26 pm
1980.22 11/16/2014 21:26:24 Nov 16 04:26 pm Nov 16 1:26 pm
1997.16 11/16/2014 20:26:40 Nov 16 03:26 pm Nov 16 12:26 pm
1988.68 11/16/2014 19:26:56 Nov 16 02:26 pm Nov 16 11:26 am
1997.16 11/16/2014 18:27:12 Nov 16 01:27 pm Nov 16 10:27 am
1971.77 11/16/2014 17:27:28 Nov 16 12:27 pm Nov 16 9:27 am
2152.53 11/16/2014 16:27:44 Nov 16 11:27 am Nov 16 8:27 am
2143.76 11/16/2014 15:25:52 Nov 16 10:25 am Nov 16 7:25 am
2152.53 11/16/2014 14:26:08 Nov 16 09:26 am Nov 16 6:26 am
2143.76 11/16/2014 13:26:24 Nov 16 08:26 am Nov 16 5:26 am
2152.53 11/16/2014 12:26:40 Nov 16 07:26 am Nov 16 4:26 am
2152.53 11/16/2014 11:26:56 Nov 16 06:26 am Nov 16 3:26 am
2143.76 11/16/2014 10:27:12 Nov 16 05:27 am Nov 16 2:27 am
2161.31 11/16/2014 09:27:28 Nov 16 04:27 am Nov 16 1:27 am
2135.01 11/16/2014 08:27:44 Nov 16 03:27 am Nov 16 12:27 am
2152.53 11/16/2014 07:25:52 Nov 16 02:25 am Nov 15 11:25 pm
2152.53 11/16/2014 06:26:08 Nov 16 01:26 am Nov 15 10:26 pm
2161.31 11/16/2014 04:26:40 Nov 15 11:26 pm Nov 15 8:26 pm
2143.76 11/16/2014 02:27:12 Nov 15 09:27 pm Nov 15 6:27 pm
2152.53 11/16/2014 00:27:44 Nov 15 07:27 pm Nov 15 4:27 pm
2152.53 11/15/2014 22:26:08 Nov 15 05:26 pm Nov 15 2:26 pm
2143.76 11/15/2014 21:26:24 Nov 15 04:26 pm Nov 15 1:26 pm
2152.53 11/15/2014 20:26:40 Nov 15 03:26 pm Nov 15 12:26 pm
2152.53 11/15/2014 18:27:12 Nov 15 01:27 pm Nov 15 10:27 am
2152.53 11/15/2014 16:27:44 Nov 15 11:27 am Nov 15 8:27 am
2152.53 11/15/2014 15:25:52 Nov 15 10:25 am Nov 15 7:25 am
2152.53 11/15/2014 13:26:24 Nov 15 08:26 am Nov 15 5:26 am
2152.53 11/15/2014 12:26:40 Nov 15 07:26 am Nov 15 4:26 am
2170.11 11/15/2014 11:26:56 Nov 15 06:26 am Nov 15 3:26 am
2143.76 11/15/2014 10:27:12 Nov 15 05:27 am Nov 15 2:27 am
2161.31 11/15/2014 09:27:28 Nov 15 04:27 am Nov 15 1:27 am
2152.53 11/15/2014 08:27:44 Nov 15 03:27 am Nov 15 12:27 am
2161.31 11/15/2014 07:25:52 Nov 15 02:25 am Nov 14 11:25 pm
2143.76 11/15/2014 06:26:08 Nov 15 01:26 am Nov 14 10:26 pm
2161.31 11/15/2014 05:26:24 Nov 15 12:26 am Nov 14 9:26 pm
2170.11 11/15/2014 00:27:44 Nov 14 07:27 pm Nov 14 4:27 pm
2161.31 11/14/2014 23:25:52 Nov 14 06:25 pm Nov 14 3:25 pm
2170.11 11/14/2014 22:26:08 Nov 14 05:26 pm Nov 14 2:26 pm
2161.31 11/14/2014 21:26:24 Nov 14 04:26 pm Nov 14 1:26 pm
2152.53 11/14/2014 20:26:40 Nov 14 03:26 pm Nov 14 12:26 pm
2161.31 11/14/2014 19:26:56 Nov 14 02:26 pm Nov 14 11:26 am
2170.11 11/14/2014 18:27:12 Nov 14 01:27 pm Nov 14 10:27 am
2170.11 11/14/2014 17:27:28 Nov 14 12:27 pm Nov 14 9:27 am
2170.11 11/14/2014 16:27:44 Nov 14 11:27 am Nov 14 8:27 am
2161.31 11/14/2014 15:25:52 Nov 14 10:25 am Nov 14 7:25 am
2187.75 11/14/2014 14:26:08 Nov 14 09:26 am Nov 14 6:26 am
2553.42 11/14/2014 13:26:24 Nov 14 08:26 am Nov 14 5:26 am
2562.87 11/14/2014 12:26:40 Nov 14 07:26 am Nov 14 4:26 am
2553.42 11/14/2014 11:26:56 Nov 14 06:26 am Nov 14 3:26 am
2543.98 11/14/2014 10:27:12 Nov 14 05:27 am Nov 14 2:27 am
2553.42 11/14/2014 09:27:28 Nov 14 04:27 am Nov 14 1:27 am
2534.56 11/14/2014 08:27:44 Nov 14 03:27 am Nov 14 12:27 am
2553.42 11/14/2014 07:25:52 Nov 14 02:25 am Nov 13 11:25 pm
2543.98 11/14/2014 06:26:08 Nov 14 01:26 am Nov 13 10:26 pm
2534.56 11/14/2014 05:26:24 Nov 14 12:26 am Nov 13 9:26 pm
2534.56 11/14/2014 01:27:28 Nov 13 08:27 pm Nov 13 5:27 pm
2543.98 11/14/2014 00:27:44 Nov 13 07:27 pm Nov 13 4:27 pm
2515.76 11/13/2014 23:25:52 Nov 13 06:25 pm Nov 13 3:25 pm
2543.98 11/13/2014 21:26:24 Nov 13 04:26 pm Nov 13 1:26 pm
2534.56 11/13/2014 20:26:40 Nov 13 03:26 pm Nov 13 12:26 pm
2525.16 11/13/2014 19:26:56 Nov 13 02:26 pm Nov 13 11:26 am
2543.98 11/13/2014 18:27:12 Nov 13 01:27 pm Nov 13 10:27 am
2543.98 11/13/2014 17:27:28 Nov 13 12:27 pm Nov 13 9:27 am
2515.76 11/13/2014 16:27:44 Nov 13 11:27 am Nov 13 8:27 am
2506.39 11/13/2014 15:25:52 Nov 13 10:25 am Nov 13 7:25 am
2515.76 11/13/2014 13:26:24 Nov 13 08:26 am Nov 13 5:26 am
2706.41 11/13/2014 11:26:56 Nov 13 06:26 am Nov 13 3:26 am
2696.74 11/13/2014 10:27:12 Nov 13 05:27 am Nov 13 2:27 am
2706.41 11/13/2014 09:27:28 Nov 13 04:27 am Nov 13 1:27 am
2725.80 11/13/2014 08:27:44 Nov 13 03:27 am Nov 13 12:27 am
2706.41 11/13/2014 07:25:52 Nov 13 02:25 am Nov 12 11:25 pm
2706.41 11/13/2014 06:26:08 Nov 13 01:26 am Nov 12 10:26 pm
2706.41 11/13/2014 02:27:12 Nov 12 09:27 pm Nov 12 6:27 pm
2892.98 11/12/2014 18:27:12 Nov 12 01:27 pm Nov 12 10:27 am
2902.95 11/12/2014 17:27:28 Nov 12 12:27 pm Nov 12 9:27 am
2883.03 11/12/2014 16:27:44 Nov 12 11:27 am Nov 12 8:27 am
2892.98 11/12/2014 15:25:52 Nov 12 10:25 am Nov 12 7:25 am
2843.37 11/12/2014 14:26:08 Nov 12 09:26 am Nov 12 6:26 am
2883.03 11/12/2014 13:26:24 Nov 12 08:26 am Nov 12 5:26 am
2883.03 11/12/2014 12:26:40 Nov 12 07:26 am Nov 12 4:26 am
2892.98 11/12/2014 11:26:56 Nov 12 06:26 am Nov 12 3:26 am
2873.10 11/12/2014 10:27:12 Nov 12 05:27 am Nov 12 2:27 am
2873.10 11/12/2014 09:27:28 Nov 12 04:27 am Nov 12 1:27 am
2863.17 11/12/2014 08:27:44 Nov 12 03:27 am Nov 12 12:27 am
2863.17 11/12/2014 07:25:52 Nov 12 02:25 am Nov 11 11:25 pm
2873.10 11/12/2014 06:26:08 Nov 12 01:26 am Nov 11 10:26 pm
2863.17 11/12/2014 05:26:24 Nov 12 12:26 am Nov 11 9:26 pm
2863.17 11/12/2014 03:26:56 Nov 11 10:26 pm Nov 11 7:26 pm
2863.17 11/12/2014 00:27:44 Nov 11 07:27 pm Nov 11 4:27 pm

Report - Reports of Related Gauges

Reports give the public a chance to report on river conditions throughout the country as well as log the history of a river.

Reports

When River/Gauge Subject Level Reporter
5y185d14h42m Gauley at Summersville (cfs) [WV] Account of 05/26/09 245 cfs Ryan Groth

Linked Reaches

Click a heading to sort. Hover over a heading for help.
River Name/Section Class Level running? Updated
Gauley [WV] 7 (Upper). Summersville Dam to Mason Branch IV-V 3105 cfs
+ 10 cfs/hr
R5-
Runnable
01h12m
Gauley [WV] 9 (Lower). Bucklick Branch to Swiss III-IV(V) 4220 cfs
-151 cfs/hr
R4-
Runnable
00h40m

Associated Gauges

Disclaimer Data Sources

GAULEY RIVER BELOW SUMMERSVILLE DAM, WV (AW#1434)

11.36 ft 01h10m